Regional Weather Roundup
Issued by NWS Burlington, VT

Home | Current Version | Previous Version | Text Only | Print | Product List | Glossary On
Versions: 1 2 3 4 5 6 7 8 9 10 11 12 13 14 15 16 17 18 19 20 21 22 23 24 25 26 27 28 29 30 31 32 33 34 35 36 37 38 39 40 41 42 43 44 45 46 47 48 49 50
922
ASUS41 KBTV 281210
RWRBTV
VERMONT REGIONAL WEATHER ROUNDUP
NATIONAL WEATHER SERVICE BURLINGTON VT
800 AM EDT WED SEP 28 2016

NOTE: "FAIR" INDICATES FEW OR NO CLOUDS BELOW 12,000 FEET WITH NO
SIGNIFICANT WEATHER AND/OR OBSTRUCTIONS TO VISIBILITY.

* THESE REPORTS ARE NOT UNDER NWS QUALITY CONTROL AND/OR DO NOT
  REPORT WEATHER SUCH AS PRECIPITATION AND FOG.

VTZ001>019-281300-
_____VERMONT_____


CITY           SKY/WX    TMP DP  RH WIND       PRES   REMARKS
BURLINGTON     MOSUNNY   58  49  72 CALM      30.15R
6HR MIN TEMP:  53; 6HR MAX TEMP:  59;

MONTPELIER     CLOUDY    48  46  93 E3        30.23R
6HR MIN TEMP:  42; 6HR MAX TEMP:  48;

MORRISVILLE    CLOUDY    49  46  90 CALM      30.21R
6HR MIN TEMP:  42; 6HR MAX TEMP:  49;

ST. JOHNSBURY*   N/A     48  46  93 MISG      30.20R
6HR MIN TEMP:  45; 6HR MAX TEMP:  48;

LYNDONVILLE*   CLOUDY    47  46  99 CALM      30.22R
6HR MIN TEMP:  42; 6HR MAX TEMP:  47;

MIDDLEBURY*    FAIR      59  52  77 SE9G16    30.15R
6HR MIN TEMP:  50; 6HR MAX TEMP:  59;

SPRINGFIELD    CLOUDY    50  48  93 CALM      30.20R
6HR MIN TEMP:  46; 6HR MAX TEMP:  50;

HIGHGATE*      FAIR      52  50  93 CALM      30.16R
6HR MIN TEMP:  52; 6HR MAX TEMP:  54;

NEWPORT*       FAIR      45  45  99 SW6       30.20R
6HR MIN TEMP:  41; 6HR MAX TEMP:  49;

BENNINGTON     CLOUDY    58  52  80 SE8       30.15R
6HR MIN TEMP:  47; 6HR MAX TEMP:  58;

SUTTON*          N/A     50 N/A N/A MISG        N/A

_____LAKE CHAMPLAIN_____


CITY           SKY/WX    TMP DP  RH WIND       PRES   REMARKS
BURTON ISLAND*   N/A     59  52  77 E7          N/A
COLCHESTER RF*   N/A     59  55  88 W6          N/A
DIAMOND ISL*     N/A     57  54  88 S5          N/A

$$

NYZ007-026>031-035-052-083-087-281300-
_____NORTHERN NEW YORK_____


CITY           SKY/WX    TMP DP  RH WIND       PRES   REMARKS
PLATTSBURGH    MOSUNNY   52  49  89 CALM      30.15R
6HR MIN TEMP:  48; 6HR MAX TEMP:  54;

SARANAC LAKE   MOSUNNY   43  40  89 CALM      30.14R
6HR MIN TEMP:  33; 6HR MAX TEMP:  45;

MASSENA        CLOUDY    54  51  90 E12       30.14R FOG
6HR MIN TEMP:  45; 6HR MAX TEMP:  54;

OGDENSBURG*    SUNNY     48  48 100 E5        30.10R
6HR MIN TEMP:  43; 6HR MAX TEMP:  51;

POTSDAM*       SUNNY     50  48  93 E6        30.12R
WATERTOWN      SUNNY     50  43  77 E6        30.06R
6HR MIN TEMP:  46; 6HR MAX TEMP:  51;

FT DRUM        SUNNY     52  46  82 SE15      30.07R
6HR MIN TEMP:  51; 6HR MAX TEMP:  52; 6HR PCP: TRACE;

ALBANY         MOSUNNY   51  50  96 CALM      30.14R
6HR MIN TEMP:  48; 6HR MAX TEMP:  52;

GLENS FALLS    SUNNY     48  44  86 CALM      30.14R
6HR MIN TEMP:  42; 6HR MAX TEMP:  51;


$$
NHZ002-005-011-281300-
_____NEW HAMPSHIRE_____


CITY           SKY/WX    TMP DP  RH WIND       PRES   REMARKS
LEBANON        CLOUDY    52  51  97 CALM      30.19R
6HR MIN TEMP:  49; 6HR MAX TEMP:  52;

KEENE          PTSUNNY   55  54  94 CALM      30.19R
6HR MIN TEMP:  46; 6HR MAX TEMP:  52;

MT WASHINGTON  PTSUNNY   41  30  65 E5          N/A
6HR MIN TEMP:  35; 6HR MAX TEMP:  40;

PLYMOUTH       CLOUDY    52  51  97 NE3       30.21R
6HR MIN TEMP:  48; 6HR MAX TEMP:  52;

WHITEFIELD     SUNNY     54  49  83 E8        30.20R
6HR MIN TEMP:  37; 6HR MAX TEMP:  54;


$$

_____REGIONAL QUEBEC LOCATIONS_____


CITY           SKY/WX    TMP DP  RH WIND       PRES   REMARKS
MONTREAL       CLOUDY    54  50  87 N15G22    30.17R
QUEBEC CITY    CLOUDY    50  46  87 E13G23    30.29R
SHERBROOKE     PTSUNNY   52  50  93 NE7       30.20R

_____REGIONAL ONTARIO LOCATIONS_____


CITY           SKY/WX    TMP DP  RH WIND       PRES   REMARKS
OTTAWA         CLOUDY    50  50 100 NE13      30.12R FOG

______KEY______
VSB  - VISIBILITY IN MILES
WCI  - WIND CHILL INDEX
HX   - HEAT INDEX
$$
NNNN




USA.gov is the U.S. government's official web portal to all federal, state and local government web resources and services.